Skip Page Navigation
NASA JPL Caltech
NASA Logo - Jet Propulsion Laboratory + View the NASA Portal
+ Center for Near-Earth Object Studies
JPL Home Earth Solar System Stars & Galaxies Technology
JPL Solar System Dynamics
BODIES ORBITS EPHEMERIDES TOOLS PHYSICAL DATA DISCOVERY FAQ SITE MAP
IMPORTANT: The SSD Announcement email list is now available. Major changes are coming in the near future, including possible hostname and/or URL changes. To be notified of such changes, subscribe to this email list.

Please visit this page for more details.


JPL Small-Body Database Browser
Search: [ help ]  
47756 (2000 DO96)
Classification: Main-belt Asteroid          SPK-ID: 2047756
Ephemeris | Orbit Diagram | Orbital Elements | Mission Design | Physical Parameters | Discovery Circumstances | Close-Approach Data ]

[ show orbit diagram ]
Orbital Elements at Epoch 2458600.5 (2019-Apr-27.0) TDB
Reference: JPL 20 (heliocentric ecliptic J2000)
 Element Value Uncertainty (1-sigma)   Units 
e .03003923440493731 4.0198e-08  
a 2.679900650598527 1.5489e-08 au
q 2.599398486773254 1.0734e-07 au
i 3.909630706141252 4.8435e-06 deg
node 323.38201435489 6.1963e-05 deg
peri 135.2047530415886 0.00010476 deg
M 176.3828996159786 8.6838e-05 deg
tp 2457815.390115487534
(2017-Mar-02.89011549)
0.00038398 TDB
period 1602.420410594515
4.39
1.3892e-05
3.803e-08
d
yr
n .2246601438797426 1.9477e-09 deg/d
Q 2.7604028144238 1.5954e-08 au
  Orbit Determination Parameters
   # obs. used (total)      926  
   data-arc span      8562 days (23.44 yr)  
   first obs. used      1996-03-23  
   last obs. used      2019-09-01  
   planetary ephem.      DE431  
   SB-pert. ephem.      SB431-N16  
   condition code      0  
   norm. resid. RMS      .5395  
   source      ORB  
   producer      Otto Matic  
   solution date      2019-Sep-24 02:14:03  

Additional Information
 Earth MOID = 1.61817 au 
 Jupiter MOID = 2.27808 au 
 T_jup = 3.373 
[ show covariance matrix ]

Ephemeris | Orbit Diagram | Orbital Elements | Mission Design | Physical Parameters | Discovery Circumstances | Close-Approach Data ]

Physical Parameter Table
Parameter Symbol Value Units Sigma Reference Notes
absolute magnitude H 15.0   n/a MPO436117  

47756 (2000 DO96)          Discovered 2000-Feb-29 by LINEAR at Socorro
Reference: 20020921/Numbers.arcLast Updated: 2004-04-19

[ show close-approach data ]
Alternate Designations
 2000 DO96 = 1998 UE35 
Ephemeris | Orbit Diagram | Orbital Elements | Mission Design | Physical Parameters | Discovery Circumstances | Close-Approach Data ]
ABOUT SSD CREDITS/AWARDS PRIVACY/COPYRIGHT GLOSSARY LINKS
FirstGov 2020-Jan-20 18:10 UT
(server date/time)  
NASA Home Page
Site Manager:   Ryan S. Park
Webmaster  Alan B. Chamberlin